CW4279 Weather Reports


Display with metric or nautical units.
time (UTC)temp
F
wind
direction
speed
MPH
gust
MPH
rain 1hr
in
rain 24hr
in
rain mn
in
humidity
%
barometer
mb
20260507141733 47 107 1.0 3.0 0.00 0.00 0.00 43 1010.6
20260507141230 45 122 1.0 2.0 0.00 0.00 0.00 47 1010.5
20260507140726 45 110 0.0 3.0 0.00 0.00 0.00 50 1010.6
20260507140224 45 41 3.0 5.0 0.00 0.00 0.00 50 1010.9
20260507135721 44 101 1.0 2.0 0.00 0.00 0.00 54 1010.8
20260507135218 44 157 1.0 2.0 0.00 0.00 0.00 52 1010.8
20260507134714 44 234 3.0 5.0 0.00 0.00 0.00 53 1010.7
20260507134210 44 54 2.0 2.0 0.00 0.00 0.00 53 1010.8
20260507133707 43 91 2.0 3.0 0.00 0.00 0.00 54 1010.9
20260507133204 43 117 0.0 1.0 0.00 0.00 0.00 58 1010.9
20260507132701 42 219 2.0 2.0 0.00 0.00 0.00 58 1010.8
20260507132157 42 174 2.0 3.0 0.00 0.00 0.00 59 1010.7
20260507131654 42 107 0.0 3.0 0.00 0.00 0.00 59 1010.9
20260507131152 41 350 3.0 3.0 0.00 0.00 0.00 61 1010.9
20260507130648 41 140 0.0 1.0 0.00 0.00 0.00 65 1011.0
20260507130146 40 142 0.0 1.0 0.00 0.00 0.00 67 1010.9
20260507125645 40 144 0.0 1.0 0.00 0.00 0.00 68 1010.6
20260507125142 39 145 0.0 1.0 0.00 0.00 0.00 67 1010.8
20260507124638 38 146 0.0 1.0 0.00 0.00 0.00 70 1010.9
20260507124136 38 146 0.0 0.0 0.00 0.00 0.00 70 1010.7
20260507123634 38 146 0.0 0.0 0.00 0.00 0.00 71 1011.0
20260507123131 38 146 0.0 0.0 0.00 0.00 0.00 72 1011.0
20260507122626 38 146 0.0 1.0 0.00 0.00 0.00 72 1010.8
20260507122122 38 146 0.0 0.0 0.00 0.00 0.00 72 1011.1
20260507121618 37 146 0.0 1.0 0.00 0.00 0.00 73 1011.0
20260507121114 37 146 0.0 0.0 0.00 0.00 0.00 73 1010.9
20260507120610 37 146 0.0 0.0 0.00 0.00 0.00 76 1011.2
20260507120107 36 146 0.0 0.0 0.00 0.00 0.00 77 1011.1
20260507115603 36 146 0.0 0.0 0.00 0.00 0.00 79 1010.8
20260507115059 36 146 0.0 0.0 0.00 0.00 0.00 80 1010.8
20260507114555 35 146 0.0 0.0 0.00 0.00 0.00 80 1011.1
20260507114053 35 146 0.0 0.0 0.00 0.00 0.00 79 1010.8
20260507113549 35 146 0.0 0.0 0.00 0.00 0.00 79 1010.7
20260507113047 35 146 0.0 0.0 0.00 0.00 0.00 77 1011.0
20260507112545 35 146 0.0 0.0 0.00 0.00 0.00 76 1011.0
20260507112041 35 147 0.0 0.0 0.00 0.00 0.00 74 1010.8
20260507111538 35 147 0.0 0.0 0.00 0.00 0.00 75 1011.0
20260507111035 35 147 0.0 0.0 0.00 0.00 0.00 74 1011.0
20260507110531 35 147 0.0 0.0 0.00 0.00 0.00 75 1010.7
20260507110027 35 147 0.0 1.0 0.00 0.00 0.00 75 1010.9
20260507105525 35 147 0.0 1.0 0.00 0.00 0.00 75 1010.8
20260507105020 35 147 0.0 1.0 0.00 0.00 0.00 75 1010.7
20260507104518 35 147 0.0 1.0 0.00 0.00 0.00 76 1010.8
20260507104015 35 147 0.0 0.0 0.00 0.00 0.00 76 1010.7
20260507103511 35 147 0.0 0.0 0.00 0.00 0.00 75 1010.9
20260507103007 35 147 0.0 0.0 0.00 0.00 0.00 75 1011.0
20260507102504 35 147 0.0 1.0 0.00 0.00 0.00 74 1010.9
20260507102000 36 147 0.0 0.0 0.00 0.00 0.00 75 1010.9
20260507101455 36 147 0.0 1.0 0.00 0.00 0.00 72 1010.9
20260507100953 36 149 0.0 1.0 0.00 0.00 0.00 72 1010.9
20260507100450 37 149 0.0 0.0 0.00 0.00 0.00 72 1010.7
20260507095948 37 149 0.0 0.0 0.00 0.00 0.00 72 1011.0
20260507095445 37 149 1.0 1.0 0.00 0.00 0.00 70 1011.1
20260507094942 37 149 0.0 1.0 0.00 0.00 0.00 71 1011.1
20260507094438 37 149 0.0 1.0 0.00 0.00 0.00 70 1011.1
20260507093935 36 145 0.0 0.0 0.00 0.00 0.00 72 1011.0
20260507093433 36 145 0.0 0.0 0.00 0.00 0.00 72 1011.0
20260507092931 36 145 0.0 1.0 0.00 0.00 0.00 72 1011.1
20260507092427 36 145 0.0 1.0 0.00 0.00 0.00 73 1011.0
20260507091924 36 145 0.0 0.0 0.00 0.00 0.00 74 1011.1
20260507091420 36 145 0.0 1.0 0.00 0.00 0.00 75 1011.0
20260507090916 36 145 0.0 1.0 0.00 0.00 0.00 75 1011.0
20260507090412 36 144 0.0 1.0 0.00 0.00 0.00 75 1010.7
20260507085909 36 144 0.0 0.0 0.00 0.00 0.00 76 1010.8
20260507085406 36 144 0.0 0.0 0.00 0.00 0.00 76 1010.7
20260507084904 36 144 0.0 0.0 0.00 0.00 0.00 76 1010.9
20260507084400 36 144 0.0 0.0 0.00 0.00 0.00 76 1010.9
20260507083857 36 144 0.0 0.0 0.00 0.00 0.00 76 1010.7
20260507083353 36 144 0.0 0.0 0.00 0.00 0.00 75 1010.7
20260507082850 36 144 0.0 1.0 0.00 0.00 0.00 74 1011.0
20260507082345 36 144 0.0 0.0 0.00 0.00 0.00 74 1010.9
20260507081843 36 144 0.0 0.0 0.00 0.00 0.00 75 1010.9
20260507081339 36 144 0.0 0.0 0.00 0.00 0.00 75 1010.8
20260507080836 36 144 0.0 0.0 0.00 0.00 0.00 75 1010.5
20260507080332 36 144 0.0 0.0 0.00 0.00 0.00 76 1010.7
20260507075828 36 144 0.0 0.0 0.00 0.00 0.00 77 1010.6
20260507075324 36 144 0.0 0.0 0.00 0.00 0.00 76 1010.7
20260507074820 37 144 0.0 0.0 0.00 0.00 0.00 75 1010.7
20260507074318 37 144 0.0 0.0 0.00 0.00 0.00 74 1010.7
20260507073815 37 144 0.0 0.0 0.00 0.00 0.00 73 1010.9
20260507073312 37 144 0.0 0.0 0.00 0.00 0.00 73 1010.9
20260507072809 37 144 0.0 0.0 0.00 0.00 0.00 73 1010.9
20260507072308 37 144 0.0 0.0 0.00 0.00 0.00 74 1011.0
20260507071804 37 144 0.0 0.0 0.00 0.00 0.00 74 1011.3
20260507071300 38 144 0.0 0.0 0.00 0.00 0.00 73 1011.0
20260507070757 38 144 0.0 0.0 0.00 0.00 0.00 71 1011.2
20260507070254 38 144 0.0 0.0 0.00 0.00 0.00 71 1011.3
20260507065750 38 144 0.0 0.0 0.00 0.00 0.00 71 1011.5
20260507065247 38 144 0.0 0.0 0.00 0.00 0.00 72 1011.3
20260507064744 38 144 0.0 1.0 0.00 0.00 0.00 71 1011.5
20260507064243 38 144 0.0 0.0 0.00 0.00 0.00 72 1011.3
20260507063740 38 144 0.0 0.0 0.00 0.00 0.00 70 1011.4
20260507063237 38 144 0.0 1.0 0.00 0.00 0.00 68 1011.3
20260507062734 38 141 0.0 1.0 0.00 0.00 0.00 72 1011.4
20260507062231 38 141 0.0 0.0 0.00 0.00 0.00 71 1011.6
20260507061730 38 141 0.0 0.0 0.00 0.00 0.00 69 1011.6
20260507061227 39 141 0.0 0.0 0.00 0.00 0.00 67 1011.8
20260507060725 39 141 0.0 0.0 0.00 0.00 0.00 67 1011.5
20260507060221 39 141 0.0 0.0 0.00 0.00 0.00 68 1011.5
20260507055717 39 141 0.0 0.0 0.00 0.00 0.00 69 1011.7
20260507055213 39 141 0.0 1.0 0.00 0.00 0.00 69 1011.7
20260507054709 39 141 0.0 0.0 0.00 0.00 0.00 69 1011.7
20260507054206 39 141 0.0 1.0 0.00 0.00 0.00 69 1011.7
20260507053704 39 141 0.0 0.0 0.00 0.00 0.00 70 1011.8
20260507053202 39 141 0.0 0.0 0.00 0.00 0.00 70 1011.7
20260507052701 39 141 0.0 0.0 0.00 0.00 0.00 68 1011.9
20260507052156 39 141 0.0 0.0 0.00 0.00 0.00 70 1011.7
20260507051654 39 141 0.0 0.0 0.00 0.00 0.00 69 1012.0
20260507051150 39 141 0.0 0.0 0.00 0.00 0.00 68 1011.7
20260507050647 39 141 0.0 0.0 0.00 0.00 0.00 68 1012.0
20260507050144 39 141 0.0 0.0 0.00 0.00 0.00 69 1012.1
20260507045641 39 141 0.0 0.0 0.00 0.00 0.00 69 1012.1
20260507045137 39 141 0.0 0.0 0.00 0.00 0.00 69 1012.0
20260507044634 39 141 0.0 0.0 0.00 0.00 0.00 68 1011.9
20260507044131 39 141 0.0 0.0 0.00 0.00 0.00 69 1011.9
20260507043627 39 141 0.0 0.0 0.00 0.00 0.00 69 1011.9
20260507043125 39 141 0.0 0.0 0.00 0.00 0.00 68 1012.0
20260507042621 39 141 0.0 0.0 0.00 0.00 0.00 69 1012.2
20260507042116 39 141 0.0 0.0 0.00 0.00 0.00 67 1012.2
20260507041613 39 141 0.0 0.0 0.00 0.00 0.00 65 1012.0
20260507041110 39 141 0.0 0.0 0.00 0.00 0.00 64 1012.2
20260507040607 40 141 0.0 0.0 0.00 0.00 0.00 65 1012.2
20260507035559 40 141 0.0 1.0 0.00 0.00 0.00 65 1012.4
20260507035055 40 140 0.0 0.0 0.00 0.00 0.00 63 1012.3
20260507034552 40 140 0.0 0.0 0.00 0.00 0.00 61 1012.4
20260507034050 40 140 0.0 0.0 0.00 0.00 0.00 63 1012.4
20260507033548 40 140 0.0 1.0 0.00 0.00 0.00 60 1012.3
20260507033044 40 140 0.0 0.0 0.00 0.00 0.00 60 1012.2
20260507032541 39 140 0.0 0.0 0.00 0.00 0.00 62 1012.4
20260507032038 39 140 0.0 0.0 0.00 0.00 0.00 62 1012.3
20260507031535 40 140 0.0 0.0 0.00 0.00 0.00 62 1012.3
20260507031032 40 140 0.0 0.0 0.00 0.00 0.00 62 1012.4
20260507030528 40 140 0.0 0.0 0.00 0.00 0.00 62 1012.4
20260507030026 40 140 0.0 0.0 0.00 0.00 0.00 62 1012.6
20260507025523 40 140 0.0 0.0 0.00 0.00 0.00 63 1012.5
20260507025020 40 140 0.0 0.0 0.00 0.00 0.00 62 1012.3
20260507024518 40 140 0.0 0.0 0.00 0.00 0.00 62 1012.6
20260507024014 40 140 0.0 0.0 0.00 0.00 0.00 62 1012.4
20260507023510 40 140 0.0 0.0 0.00 0.00 0.00 61 1012.5
20260507023009 40 140 0.0 0.0 0.00 0.00 0.00 61 1012.6
20260507022505 40 140 0.0 0.0 0.00 0.00 0.00 62 1012.6
20260507022000 40 140 0.0 0.0 0.00 0.00 0.00 59 1012.7
20260507021456 41 140 0.0 0.0 0.00 0.00 0.00 60 1012.6
20260507020953 41 140 0.0 0.0 0.00 0.00 0.00 58 1012.4
20260507020450 41 140 0.0 0.0 0.00 0.00 0.00 59 1012.4
20260507015947 41 140 0.0 0.0 0.00 0.00 0.00 57 1012.4
20260507015446 41 140 0.0 0.0 0.00 0.00 0.00 57 1012.3
20260507014942 41 140 0.0 0.0 0.00 0.00 0.00 57 1012.4
20260507014439 41 140 0.0 0.0 0.00 0.00 0.00 58 1012.4
20260507013935 41 140 0.0 0.0 0.00 0.00 0.00 57 1012.5
20260507013432 41 140 0.0 1.0 0.00 0.00 0.00 56 1012.2
20260507012929 41 140 0.0 0.0 0.00 0.00 0.00 56 1012.5
20260507012426 42 140 0.0 0.0 0.00 0.00 0.00 56 1012.4
20260507011923 42 140 0.0 1.0 0.00 0.00 0.00 55 1012.4
20260507011420 42 138 0.0 1.0 0.00 0.00 0.00 54 1012.5
20260507010919 42 140 0.0 1.0 0.00 0.00 0.00 55 1012.4
20260507010415 42 111 0.0 1.0 0.00 0.00 0.00 53 1012.4
20260507005912 42 119 0.0 1.0 0.00 0.00 0.00 53 1012.4
20260507005409 42 100 1.0 2.0 0.00 0.00 0.00 54 1012.4
20260507004906 42 136 0.0 1.0 0.00 0.00 0.00 55 1012.6
20260507004403 42 124 0.0 1.0 0.00 0.00 0.00 53 1012.7
20260507003900 43 144 1.0 1.0 0.00 0.00 0.00 54 1012.9
20260507003355 43 136 0.0 0.0 0.00 0.00 0.00 52 1012.7
20260507002851 43 142 0.0 1.0 0.00 0.00 0.00 53 1012.5
20260507002347 43 126 0.0 2.0 0.00 0.00 0.00 52 1012.6
20260507001844 43 150 1.0 2.0 0.00 0.00 0.00 52 1012.6
20260507001341 43 136 1.0 2.0 0.00 0.00 0.00 51 1012.5
20260507000837 44 133 1.0 1.0 0.00 0.00 0.00 50 1012.9
20260507000335 44 66 1.0 2.0 0.00 0.00 0.00 51 1012.6
20260506235830 44 156 3.0 5.0 0.00 0.00 0.00 50 1012.4
20260506235327 44 139 0.0 1.0 0.00 0.00 0.00 51 1012.7
20260506234823 44 140 0.0 0.0 0.00 0.00 0.00 52 1012.6
20260506234320 44 143 0.0 1.0 0.00 0.00 0.00 50 1012.7
20260506233818 44 140 0.0 2.0 0.00 0.00 0.00 51 1012.9
20260506233313 44 140 1.0 1.0 0.00 0.00 0.00 51 1012.7
20260506232811 44 49 2.0 5.0 0.00 0.00 0.00 49 1012.6
20260506232306 44 67 1.0 6.0 0.00 0.00 0.00 50 1012.9
20260506231803 44 123 0.0 1.0 0.00 0.00 0.00 51 1013.1
20260506231301 44 203 3.0 5.0 0.00 0.00 0.00 49 1013.0
20260506230758 44 157 0.0 2.0 0.00 0.00 0.00 50 1013.0
20260506230249 44 80 2.0 5.0 0.00 0.00 0.00 49 1012.9
20260506225745 44 40 2.0 5.0 0.00 0.00 0.00 50 1012.7
20260506225243 44 74 1.0 6.0 0.00 0.00 0.00 49 1013.0
20260506224739 44 86 2.0 8.0 0.00 0.00 0.00 50 1013.1
20260506224236 44 179 2.0 2.0 0.00 0.00 0.00 49 1013.5
20260506223732 44 156 1.0 3.0 0.00 0.00 0.00 50 1013.1
20260506223228 44 74 0.0 3.0 0.00 0.00 0.00 50 1013.2
20260506222725 44 158 0.0 7.0 0.00 0.00 0.00 50 1013.1
20260506222221 44 151 4.0 6.0 0.00 0.00 0.00 49 1013.3
20260506221719 43 210 3.0 3.0 0.00 0.00 0.00 50 1013.3
20260506221217 43 158 2.0 6.0 0.00 0.00 0.00 50 1013.3
20260506220714 43 168 2.0 5.0 0.00 0.00 0.00 51 1013.3
20260506220208 44 213 2.0 7.0 0.00 0.00 0.00 51 1013.1
20260506215705 43 152 2.0 6.0 0.00 0.00 0.00 51 1013.2
20260506215201 43 287 1.0 2.0 0.00 0.00 0.00 50 1013.1
20260506214657 43 356 2.0 7.0 0.00 0.00 0.00 50 1013.5
20260506214155 44 134 1.0 2.0 0.00 0.00 0.00 51 1013.3
20260506213654 44 70 1.0 3.0 0.00 0.00 0.00 50 1013.4
20260506213150 44 245 1.0 2.0 0.00 0.00 0.00 50 1013.4
20260506212647 44 107 0.0 2.0 0.00 0.00 0.00 50 1013.3
20260506212142 44 139 2.0 3.0 0.00 0.00 0.00 50 1013.6
20260506211638 44 225 1.0 5.0 0.00 0.00 0.00 49 1013.5
20260506211135 44 191 1.0 2.0 0.00 0.00 0.00 49 1013.4
20260506210632 44 155 1.0 2.0 0.00 0.00 0.00 50 1013.6
20260506210129 44 145 1.0 2.0 0.00 0.00 0.00 49 1013.3
20260506205626 44 84 1.0 2.0 0.00 0.00 0.00 49 1013.7
20260506205120 44 347 2.0 5.0 0.00 0.00 0.00 49 1013.4
20260506204618 44 144 1.0 2.0 0.00 0.00 0.00 48 1013.6
20260506204115 44 239 3.0 3.0 0.00 0.00 0.00 49 1013.5
20260506203614 44 112 3.0 3.0 0.00 0.00 0.00 48 1013.6
20260506203110 43 72 3.0 5.0 0.00 0.00 0.00 49 1013.5
20260506202608 44 152 1.0 3.0 0.00 0.00 0.00 49 1013.6
20260506202104 44 150 1.0 5.0 0.00 0.00 0.00 49 1013.5
20260506201601 44 87 2.0 3.0 0.00 0.00 0.00 49 1013.6
20260506201058 43 82 2.0 3.0 0.00 0.00 0.00 51 1013.7
20260506200554 44 133 0.0 3.0 0.00 0.00 0.00 49 1013.7
20260506200051 44 205 3.0 5.0 0.00 0.00 0.00 48 1013.7
20260506195547 43 134 0.0 5.0 0.00 0.00 0.00 50 1013.5
20260506195044 44 280 3.0 5.0 0.00 0.00 0.00 50 1013.6
20260506194542 43 77 0.0 3.0 0.00 0.00 0.00 50 1013.7
20260506194037 43 294 2.0 3.0 0.00 0.00 0.00 50 1013.8
20260506193535 43 254 2.0 3.0 0.00 0.00 0.00 50 1014.0
20260506193032 43 96 2.0 5.0 0.00 0.00 0.00 50 1013.8
20260506192529 44 77 1.0 3.0 0.00 0.00 0.00 49 1014.0
20260506192025 43 75 3.0 6.0 0.00 0.00 0.00 49 1013.8
20260506191522 43 112 1.0 3.0 0.00 0.00 0.00 51 1013.7
20260506191018 43 167 1.0 2.0 0.00 0.00 0.00 50 1013.7
20260506190515 43 158 2.0 5.0 0.00 0.00 0.00 49 1013.7
20260506190012 43 100 1.0 2.0 0.00 0.00 0.00 50 1013.5
20260506185509 42 157 1.0 3.0 0.00 0.00 0.00 52 1013.7
20260506185006 44 167 1.0 3.0 0.00 0.00 0.00 49 1013.9
20260506184503 43 247 1.0 2.0 0.00 0.00 0.00 50 1013.6
20260506184000 42 276 2.0 5.0 0.00 0.00 0.00 50 1014.0
20260506183456 42 158 2.0 2.0 0.00 0.00 0.00 52 1013.8
20260506182953 42 218 3.0 6.0 0.00 0.00 0.00 51 1013.9
20260506182450 42 122 2.0 5.0 0.00 0.00 0.00 51 1014.0
20260506181947 42 251 3.0 3.0 0.00 0.00 0.00 52 1013.9
20260506181445 42 303 2.0 6.0 0.00 0.00 0.00 53 1013.8
20260506180942 42 105 0.0 6.0 0.00 0.00 0.00 52 1013.9
20260506180438 42 99 4.0 6.0 0.00 0.00 0.00 52 1014.0
20260506175935 42 196 2.0 7.0 0.00 0.00 0.00 52 1013.8
20260506175432 43 124 1.0 2.0 0.00 0.00 0.00 51 1013.8
20260506174928 42 99 1.0 5.0 0.00 0.00 0.00 54 1014.0
20260506174427 42 51 2.0 3.0 0.00 0.00 0.00 53 1013.9
20260506173923 41 59 2.0 2.0 0.00 0.00 0.00 54 1014.1
20260506173420 41 177 1.0 3.0 0.00 0.00 0.00 54 1014.0
20260506172917 42 50 2.0 5.0 0.00 0.00 0.00 53 1014.0
20260506172414 41 260 2.0 7.0 0.00 0.00 0.00 54 1014.2
20260506171911 42 122 2.0 3.0 0.00 0.00 0.00 54 1014.1
20260506171408 41 143 1.0 5.0 0.00 0.00 0.00 55 1014.2
20260506170906 41 253 3.0 5.0 0.00 0.00 0.00 54 1014.2
20260506170401 42 107 1.0 2.0 0.00 0.00 0.00 55 1014.2
20260506165855 41 176 1.0 3.0 0.00 0.00 0.00 56 1014.2
20260506165353 41 100 1.0 3.0 0.00 0.00 0.00 56 1014.3
20260506164849 41 148 1.0 2.0 0.00 0.00 0.00 57 1014.2
20260506164345 40 235 1.0 5.0 0.00 0.00 0.00 57 1014.2
20260506163844 40 86 1.0 3.0 0.00 0.00 0.00 56 1014.2
20260506163338 40 330 4.0 6.0 0.00 0.00 0.00 57 1014.3
20260506162833 40 21 4.0 5.0 0.00 0.00 0.00 57 1014.0
20260506162331 40 76 1.0 5.0 0.00 0.00 0.00 57 1014.3
20260506161828 40 14 3.0 5.0 0.00 0.00 0.00 57 1014.0
20260506161325 41 342 3.0 5.0 0.00 0.00 0.00 57 1014.0
20260506160818 40 76 1.0 2.0 0.00 0.00 0.00 57 1014.1
20260506160314 40 174 2.0 3.0 0.00 0.00 0.00 58 1014.1
20260506155813 40 105 1.0 3.0 0.00 0.00 0.00 58 1014.2
20260506155309 39 182 3.0 3.0 0.00 0.00 0.00 58 1014.3
20260506153421 39 356 2.0 3.0 0.00 0.00 0.00 58 1013.9
20260506152919 39 147 1.0 2.0 0.00 0.00 0.00 59 1014.2
20260506152415 39 186 1.0 3.0 0.00 0.00 0.00 58 1014.1
20260506151915 39 128 0.0 2.0 0.00 0.00 0.00 58 1014.1
20260506151411 39 84 1.0 3.0 0.00 0.00 0.00 59 1014.1
20260506150909 39 136 2.0 2.0 0.00 0.00 0.00 58 1014.3
20260506150404 39 90 1.0 3.0 0.00 0.00 0.00 58 1014.3
20260506145901 39 93 1.0 1.0 0.00 0.00 0.00 59 1014.0
20260506145358 39 102 1.0 2.0 0.00 0.00 0.00 58 1014.0
20260506144855 39 193 1.0 2.0 0.00 0.00 0.00 58 1014.0
20260506144351 39 91 1.0 2.0 0.00 0.00 0.00 58 1014.0
20260506143850 39 110 0.0 2.0 0.00 0.00 0.00 59 1014.1
20260506143347 39 138 0.0 1.0 0.00 0.00 0.00 58 1014.0
20260506142845 39 103 0.0 1.0 0.00 0.00 0.00 59 1014.0
20260506142343 39 126 0.0 2.0 0.00 0.00 0.00 58 1013.9